Location: Rock Island IL
(41.5000°N, 90.5500°W)
Time: 22:52:44
(UTC-05:00)

N. Korean satellite - Visible Passes

Search period start: 22 September 2017 00:00
Search period end: 02 October 2017 00:00
Orbit: 461 x 516 km, 97.2° (Epoch: 22 September)

Date Brightness Start Highest point End Pass type
(mag) Time Alt. Az. Time Alt. Az. Time Alt. Az.
23 Sep 10.2 20:22:30 10° WSW 20:23:38 11° W 20:24:47 10° WNW visible
24 Sep 9.6 19:57:23 10° SW 20:00:15 21° W 20:03:08 10° NW visible
25 Sep 8.3 19:33:25 10° SSW 19:36:56 39° W 19:40:27 10° NNW visible
27 Sep 10.3 20:23:26 10° WSW 20:24:18 11° W 20:25:11 10° WNW visible
28 Sep 9.6 19:58:06 10° SW 20:00:54 20° W 20:03:42 10° NW visible
29 Sep 8.3 19:34:06 10° SSW 19:37:34 38° W 19:41:02 10° NNW visible
30 Sep 6.8 19:10:37 10° S 19:14:19 79° WSW 19:17:59 10° NNW visible
01 Oct 10.4 20:24:28 10° W 20:24:55 10° W 20:25:21 10° W visible
